| time (UTC) | temp F | wind direction | speed knots | gust knots | rain 1hr in | rain 24hr in | rain mn in | humidity % | barometer mb |
| 20260506105015 | 55 | 34 | 6.1 | 13.0 | 0.00 | 0.00 | 0.00 | 60 | 1014.5 |
| 20260506104012 | 55 | 15 | 4.3 | 8.7 | 0.00 | 0.00 | 0.00 | 61 | 1014.4 |
| 20260506103013 | 54 | 29 | 4.3 | 11.3 | 0.00 | 0.00 | 0.00 | 60 | 1014.5 |
| 20260506102506 | 54 | 40 | 4.3 | 10.4 | 0.00 | 0.00 | 0.00 | 61 | 1014.4 |
| 20260506102012 | 54 | 24 | 4.3 | 11.3 | 0.00 | 0.00 | 0.00 | 61 | 1014.6 |
| 20260506101506 | 54 | 37 | 6.1 | 11.3 | 0.00 | 0.00 | 0.00 | 60 | 1014.5 |
| 20260506101013 | 54 | 42 | 6.1 | 10.4 | 0.00 | 0.00 | 0.00 | 61 | 1014.5 |
| 20260506100505 | 54 | 78 | 4.3 | 10.4 | 0.00 | 0.00 | 0.00 | 60 | 1014.5 |
| 20260506100005 | 54 | 32 | 5.2 | 13.0 | 0.00 | 0.00 | 0.00 | 60 | 1014.6 |
| 20260506095506 | 54 | 20 | 4.3 | 8.7 | 0.00 | 0.00 | 0.00 | 61 | 1014.6 |
| 20260506095012 | 54 | 48 | 5.2 | 11.3 | 0.00 | 0.00 | 0.00 | 61 | 1014.6 |
| 20260506094505 | 54 | 75 | 1.7 | 7.8 | 0.00 | 0.00 | 0.00 | 60 | 1014.6 |
| 20260506094013 | 55 | 55 | 5.2 | 12.2 | 0.00 | 0.00 | 0.00 | 60 | 1014.7 |
| 20260506093506 | 54 | 42 | 5.2 | 10.4 | 0.00 | 0.00 | 0.00 | 60 | 1014.5 |
| 20260506092506 | 54 | 32 | 7.0 | 13.9 | 0.00 | 0.00 | 0.00 | 59 | 1014.5 |
| 20260506092013 | 54 | 35 | 4.3 | 13.9 | 0.00 | 0.00 | 0.00 | 61 | 1014.5 |
| 20260506091506 | 54 | 25 | 6.1 | 17.4 | 0.00 | 0.00 | 0.00 | 59 | 1014.4 |
| 20260506091013 | 55 | 55 | 2.6 | 10.4 | 0.00 | 0.00 | 0.00 | 62 | 1014.4 |
| 20260506090506 | 55 | 70 | 5.2 | 12.2 | 0.00 | 0.00 | 0.00 | 62 | 1014.3 |
| 20260506090006 | 54 | 73 | 4.3 | 11.3 | 0.00 | 0.00 | 0.00 | 63 | 1014.3 |
| 20260506085521 | 54 | 40 | 3.5 | 8.7 | 0.00 | 0.00 | 0.00 | 63 | 1014.3 |
| 20260506085013 | 54 | 66 | 4.3 | 11.3 | 0.00 | 0.00 | 0.00 | 62 | 1014.1 |
| 20260506084506 | 54 | 77 | 2.6 | 11.3 | 0.00 | 0.00 | 0.00 | 62 | 1014.3 |
| 20260506084012 | 54 | 65 | 6.1 | 12.2 | 0.00 | 0.00 | 0.00 | 61 | 1014.2 |
| 20260506083506 | 54 | 40 | 2.6 | 11.3 | 0.00 | 0.00 | 0.00 | 62 | 1014.1 |
| 20260506083013 | 54 | 55 | 4.3 | 10.4 | 0.00 | 0.00 | 0.00 | 64 | 1014.0 |
| 20260506081505 | 53 | 43 | 4.3 | 7.8 | 0.00 | 0.00 | 0.00 | 66 | 1014.1 |
| 20260506080506 | 52 | 44 | 2.6 | 13.9 | 0.00 | 0.00 | 0.00 | 68 | 1014.1 |
| 20260506073506 | 51 | 29 | 5.2 | 11.3 | 0.00 | 0.00 | 0.00 | 69 | 1014.1 |
| 20260506072506 | 51 | 51 | 5.2 | 10.4 | 0.00 | 0.00 | 0.00 | 70 | 1014.1 |
| 20260506071506 | 51 | 39 | 5.2 | 13.0 | 0.00 | 0.00 | 0.00 | 71 | 1014.1 |
| 20260506071013 | 50 | 40 | 3.5 | 10.4 | 0.00 | 0.00 | 0.00 | 72 | 1014.1 |
| 20260506070506 | 50 | 60 | 3.5 | 13.9 | 0.00 | 0.00 | 0.00 | 72 | 1013.9 |
| 20260506062505 | 48 | 43 | 4.3 | 10.4 | 0.00 | 0.00 | 0.00 | 77 | 1013.9 |
| 20260506062012 | 48 | 64 | 4.3 | 10.4 | 0.00 | 0.00 | 0.00 | 77 | 1014.0 |
| 20260506061505 | 47 | 49 | 3.5 | 8.7 | 0.00 | 0.00 | 0.00 | 78 | 1014.0 |
| 20260506061012 | 47 | 50 | 4.3 | 10.4 | 0.00 | 0.00 | 0.00 | 78 | 1014.0 |
| 20260506060506 | 47 | 48 | 2.6 | 8.7 | 0.00 | 0.00 | 0.00 | 78 | 1014.0 |
| 20260506051012 | 46 | 35 | 5.2 | 10.4 | 0.00 | 0.00 | 0.00 | 78 | 1013.8 |
| 20260506050505 | 46 | 45 | 5.2 | 12.2 | 0.00 | 0.00 | 0.00 | 78 | 1013.8 |
| 20260506045013 | 46 | 43 | 3.5 | 10.4 | 0.00 | 0.00 | 0.00 | 78 | 1013.7 |
| 20260506044012 | 46 | 32 | 4.3 | 10.4 | 0.00 | 0.00 | 0.00 | 78 | 1013.6 |
| 20260506043506 | 46 | 64 | 3.5 | 7.8 | 0.00 | 0.00 | 0.00 | 78 | 1013.6 |
| 20260506043013 | 46 | 49 | 4.3 | 10.4 | 0.00 | 0.00 | 0.00 | 78 | 1013.6 |
| 20260506042505 | 47 | 55 | 2.6 | 10.4 | 0.00 | 0.00 | 0.00 | 78 | 1013.7 |
| 20260506042012 | 47 | 39 | 3.5 | 10.4 | 0.00 | 0.00 | 0.00 | 78 | 1013.7 |
| 20260506041505 | 47 | 47 | 4.3 | 10.4 | 0.00 | 0.00 | 0.00 | 78 | 1013.8 |
| 20260506040505 | 47 | 25 | 2.6 | 6.1 | 0.00 | 0.00 | 0.00 | 78 | 1013.6 |
| 20260506040005 | 47 | 35 | 4.3 | 10.4 | 0.00 | 0.00 | 0.00 | 78 | 1013.6 |
| 20260506035505 | 47 | 44 | 1.7 | 7.8 | 0.00 | 0.00 | 0.00 | 78 | 1013.6 |
| 20260506035013 | 47 | 22 | 3.5 | 7.0 | 0.00 | 0.00 | 0.00 | 78 | 1013.6 |
| 20260506034505 | 47 | 46 | 2.6 | 7.8 | 0.00 | 0.00 | 0.00 | 78 | 1013.7 |
| 20260506034012 | 47 | 45 | 1.7 | 7.8 | 0.00 | 0.00 | 0.00 | 78 | 1013.6 |
| 20260506032506 | 48 | 47 | 4.3 | 10.4 | 0.00 | 0.00 | 0.00 | 78 | 1013.7 |
| 20260506032012 | 48 | 38 | 5.2 | 10.4 | 0.00 | 0.00 | 0.00 | 77 | 1013.6 |
| 20260506031505 | 48 | 40 | 3.5 | 8.7 | 0.00 | 0.00 | 0.00 | 77 | 1013.7 |
| 20260506031012 | 48 | 37 | 2.6 | 7.8 | 0.00 | 0.00 | 0.00 | 77 | 1013.7 |
| 20260506030505 | 48 | 31 | 1.7 | 6.1 | 0.00 | 0.00 | 0.00 | 76 | 1013.7 |
| 20260506030005 | 48 | 48 | 4.3 | 10.4 | 0.00 | 0.00 | 0.00 | 76 | 1013.6 |
| 20260506025012 | 48 | 42 | 4.3 | 8.7 | 0.00 | 0.00 | 0.00 | 76 | 1013.7 |
| 20260506024505 | 48 | 48 | 2.6 | 7.8 | 0.00 | 0.00 | 0.00 | 76 | 1013.7 |
| 20260506024012 | 48 | 42 | 4.3 | 8.7 | 0.00 | 0.00 | 0.00 | 76 | 1013.8 |
| 20260506023506 | 48 | 63 | 2.6 | 5.2 | 0.00 | 0.00 | 0.00 | 76 | 1013.8 |
| 20260506023013 | 49 | 47 | 2.6 | 6.1 | 0.00 | 0.00 | 0.00 | 76 | 1013.9 |
| 20260506022505 | 49 | 40 | 2.6 | 7.8 | 0.00 | 0.00 | 0.00 | 76 | 1013.9 |
| 20260506022012 | 49 | 47 | 2.6 | 7.8 | 0.00 | 0.00 | 0.00 | 76 | 1014.0 |
| 20260506021505 | 49 | 54 | 1.7 | 7.8 | 0.00 | 0.00 | 0.00 | 76 | 1014.0 |
| 20260506021012 | 49 | 56 | 2.6 | 7.8 | 0.00 | 0.00 | 0.00 | 76 | 1014.0 |
| 20260506020005 | 49 | 70 | 2.6 | 8.7 | 0.00 | 0.00 | 0.00 | 76 | 1014.0 |
| 20260506015504 | 49 | 65 | 2.6 | 7.0 | 0.00 | 0.00 | 0.00 | 77 | 1014.0 |
| 20260506015012 | 49 | 61 | 1.7 | 7.8 | 0.00 | 0.00 | 0.00 | 77 | 1014.1 |
| 20260506014505 | 49 | 55 | 2.6 | 8.7 | 0.00 | 0.00 | 0.00 | 77 | 1014.2 |
| 20260506014012 | 50 | 37 | 1.7 | 10.4 | 0.00 | 0.00 | 0.00 | 78 | 1014.1 |
| 20260506012505 | 50 | 47 | 2.6 | 8.7 | 0.00 | 0.00 | 0.00 | 78 | 1014.2 |
| 20260506012012 | 50 | 53 | 3.5 | 10.4 | 0.00 | 0.00 | 0.00 | 78 | 1014.2 |
| 20260506011505 | 50 | 60 | 1.7 | 4.3 | 0.00 | 0.00 | 0.00 | 78 | 1014.2 |
| 20260506011012 | 50 | 46 | 2.6 | 7.0 | 0.00 | 0.00 | 0.00 | 78 | 1014.2 |
| 20260506010506 | 50 | 64 | 1.7 | 4.3 | 0.00 | 0.00 | 0.00 | 78 | 1014.1 |
| 20260506010005 | 50 | 60 | 1.7 | 7.8 | 0.00 | 0.00 | 0.00 | 78 | 1014.1 |
| 20260506005505 | 50 | 54 | 2.6 | 8.7 | 0.00 | 0.00 | 0.00 | 77 | 1014.1 |
| 20260506005012 | 50 | 54 | 1.7 | 2.6 | 0.00 | 0.00 | 0.00 | 77 | 1014.1 |
| 20260506004012 | 50 | 67 | 1.7 | 4.3 | 0.00 | 0.00 | 0.00 | 77 | 1014.2 |
| 20260506003505 | 50 | 58 | 1.7 | 4.3 | 0.00 | 0.00 | 0.00 | 76 | 1014.1 |
| 20260506002505 | 50 | 64 | 3.5 | 7.8 | 0.00 | 0.00 | 0.00 | 75 | 1014.3 |
| 20260506001505 | 51 | 66 | 1.7 | 5.2 | 0.00 | 0.00 | 0.00 | 75 | 1014.3 |
| 20260506001012 | 51 | 67 | 2.6 | 15.6 | 0.00 | 0.00 | 0.00 | 75 | 1014.2 |
| 20260506000505 | 51 | 70 | 1.7 | 8.7 | 0.00 | 0.00 | 0.00 | 75 | 1014.3 |
| 20260505235505 | 51 | 72 | 4.3 | 10.4 | 0.00 | 0.00 | 0.00 | 74 | 1014.2 |
| 20260505235012 | 51 | 67 | 2.6 | 10.4 | 0.00 | 0.00 | 0.00 | 75 | 1014.2 |
| 20260505234505 | 51 | 76 | 3.5 | 8.7 | 0.00 | 0.00 | 0.00 | 74 | 1014.2 |
| 20260505234012 | 51 | 36 | 0.9 | 7.0 | 0.00 | 0.00 | 0.00 | 74 | 1014.2 |
| 20260505233505 | 51 | 60 | 2.6 | 7.0 | 0.00 | 0.00 | 0.00 | 74 | 1014.2 |
| 20260505233012 | 51 | 69 | 1.7 | 5.2 | 0.00 | 0.00 | 0.00 | 74 | 1014.2 |
| 20260505232504 | 51 | 63 | 2.6 | 8.7 | 0.00 | 0.00 | 0.00 | 74 | 1014.3 |
| 20260505231505 | 51 | 60 | 4.3 | 6.1 | 0.00 | 0.00 | 0.00 | 74 | 1014.3 |
| 20260505231012 | 52 | 62 | 2.6 | 7.0 | 0.00 | 0.00 | 0.00 | 74 | 1014.3 |
| 20260505230005 | 52 | 62 | 3.5 | 10.4 | 0.00 | 0.00 | 0.00 | 73 | 1014.3 |
| 20260505225505 | 52 | 54 | 2.6 | 7.0 | 0.00 | 0.00 | 0.00 | 72 | 1014.3 |
| 20260505225012 | 52 | 98 | 3.5 | 8.7 | 0.00 | 0.00 | 0.00 | 72 | 1014.3 |
| 20260505224505 | 52 | 51 | 1.7 | 4.3 | 0.00 | 0.00 | 0.00 | 72 | 1014.3 |
| 20260505224012 | 52 | 68 | 2.6 | 11.3 | 0.00 | 0.00 | 0.00 | 72 | 1014.3 |
| 20260505223505 | 52 | 93 | 3.5 | 13.0 | 0.00 | 0.00 | 0.00 | 72 | 1014.3 |
| 20260505223012 | 52 | 54 | 2.6 | 7.8 | 0.00 | 0.00 | 0.00 | 71 | 1014.3 |
| 20260505221012 | 53 | 39 | 1.7 | 4.3 | 0.00 | 0.00 | 0.00 | 79 | 1014.4 |
| 20260505220505 | 53 | 89 | 1.7 | 7.0 | 0.00 | 0.00 | 0.00 | 78 | 1014.3 |
| 20260505215505 | 53 | 104 | 0.9 | 5.2 | 0.00 | 0.00 | 0.00 | 78 | 1014.3 |
| 20260505215012 | 53 | 84 | 2.6 | 5.2 | 0.00 | 0.00 | 0.00 | 77 | 1014.2 |
| 20260505214504 | 53 | 102 | 0.9 | 7.0 | 0.00 | 0.00 | 0.00 | 77 | 1014.2 |
| 20260505214011 | 53 | 124 | 4.3 | 7.8 | 0.00 | 0.00 | 0.00 | 76 | 1014.1 |
| 20260505213505 | 53 | 115 | 3.5 | 10.4 | 0.00 | 0.00 | 0.00 | 75 | 1014.1 |
| 20260505213011 | 53 | 106 | 4.3 | 10.4 | 0.00 | 0.00 | 0.00 | 75 | 1014.0 |
| 20260505212505 | 53 | 115 | 6.1 | 11.3 | 0.00 | 0.00 | 0.00 | 74 | 1013.9 |
| 20260505211505 | 54 | 96 | 7.8 | 13.9 | 0.00 | 0.00 | 0.00 | 74 | 1013.9 |
| 20260505211012 | 54 | 106 | 7.8 | 12.2 | 0.00 | 0.00 | 0.00 | 75 | 1013.9 |
| 20260505210505 | 54 | 106 | 5.2 | 14.8 | 0.00 | 0.00 | 0.00 | 75 | 1013.9 |
| 20260505205504 | 55 | 92 | 10.4 | 15.6 | 0.00 | 0.00 | 0.00 | 72 | 1013.9 |
| 20260505205012 | 55 | 90 | 5.2 | 13.9 | 0.00 | 0.00 | 0.00 | 70 | 1013.9 |
| 20260505204012 | 55 | 91 | 7.0 | 12.2 | 0.00 | 0.00 | 0.00 | 65 | 1013.8 |
| 20260505203011 | 56 | 98 | 3.5 | 8.7 | 0.00 | 0.00 | 0.00 | 66 | 1013.7 |
| 20260505202504 | 56 | 114 | 3.5 | 10.4 | 0.00 | 0.00 | 0.00 | 66 | 1013.6 |
| 20260505202012 | 56 | 99 | 3.5 | 10.4 | 0.00 | 0.00 | 0.00 | 67 | 1013.7 |
| 20260505201505 | 56 | 98 | 5.2 | 8.7 | 0.00 | 0.00 | 0.00 | 67 | 1013.6 |
| 20260505201012 | 56 | 101 | 3.5 | 6.1 | 0.00 | 0.00 | 0.00 | 68 | 1013.6 |
| 20260505200505 | 56 | 112 | 3.5 | 7.0 | 0.00 | 0.00 | 0.00 | 67 | 1013.5 |
| 20260505200005 | 56 | 89 | 2.6 | 6.1 | 0.00 | 0.00 | 0.00 | 67 | 1013.4 |
| 20260505195011 | 56 | 97 | 2.6 | 5.2 | 0.00 | 0.00 | 0.00 | 66 | 1013.3 |
| 20260505194505 | 57 | 113 | 2.6 | 6.1 | 0.00 | 0.00 | 0.00 | 66 | 1013.3 |
| 20260505194012 | 57 | 71 | 1.7 | 7.0 | 0.00 | 0.00 | 0.00 | 66 | 1013.2 |
| 20260505193505 | 57 | 99 | 3.5 | 8.7 | 0.00 | 0.00 | 0.00 | 65 | 1013.1 |
| 20260505193012 | 57 | 90 | 4.3 | 7.8 | 0.00 | 0.00 | 0.00 | 65 | 1013.0 |
| 20260505192505 | 57 | 109 | 3.5 | 8.7 | 0.00 | 0.00 | 0.00 | 65 | 1013.0 |
| 20260505192011 | 57 | 118 | 4.3 | 10.4 | 0.00 | 0.00 | 0.00 | 65 | 1013.0 |
| 20260505191504 | 57 | 92 | 5.2 | 12.2 | 0.00 | 0.00 | 0.00 | 64 | 1013.0 |
| 20260505190005 | 58 | 97 | 0.0 | 1.7 | 0.00 | 0.00 | 0.00 | 64 | 1012.9 |
| 20260505185011 | 58 | 132 | 1.7 | 2.6 | 0.00 | 0.00 | 0.00 | 62 | 1012.8 |
| 20260505184505 | 58 | 104 | 1.7 | 2.6 | 0.00 | 0.00 | 0.00 | 62 | 1012.8 |
| 20260505184011 | 58 | 122 | 1.7 | 2.6 | 0.00 | 0.00 | 0.00 | 62 | 1012.7 |
| 20260505183505 | 58 | 134 | 1.7 | 2.6 | 0.00 | 0.00 | 0.00 | 62 | 1012.7 |
| 20260505183011 | 58 | 104 | 1.7 | 2.6 | 0.00 | 0.00 | 0.00 | 62 | 1012.6 |
| 20260505182504 | 58 | 111 | 0.0 | 2.6 | 0.00 | 0.00 | 0.00 | 62 | 1012.6 |
| 20260505182012 | 59 | 103 | 2.6 | 5.2 | 0.00 | 0.00 | 0.00 | 60 | 1012.6 |
| 20260505181505 | 59 | 171 | 1.7 | 2.6 | 0.00 | 0.00 | 0.00 | 60 | 1012.6 |
| 20260505181011 | 59 | 151 | 1.7 | 4.3 | 0.00 | 0.00 | 0.00 | 60 | 1012.6 |
| 20260505180004 | 59 | 94 | 1.7 | 2.6 | 0.00 | 0.00 | 0.00 | 60 | 1012.7 |
| 20260505175505 | 59 | 121 | 1.7 | 2.6 | 0.00 | 0.00 | 0.00 | 60 | 1012.7 |
| 20260505174504 | 59 | 152 | 2.6 | 5.2 | 0.00 | 0.00 | 0.00 | 59 | 1012.7 |
| 20260505174011 | 59 | 131 | 2.6 | 4.3 | 0.00 | 0.00 | 0.00 | 58 | 1012.6 |
| 20260505173011 | 59 | 121 | 2.6 | 6.1 | 0.00 | 0.00 | 0.00 | 57 | 1012.6 |
| 20260505172507 | 59 | 126 | 2.6 | 5.2 | 0.00 | 0.00 | 0.00 | 57 | 1012.6 |
| 20260505172011 | 60 | 160 | 0.9 | 5.2 | 0.00 | 0.00 | 0.00 | 56 | 1012.7 |
| 20260505171505 | 60 | 142 | 4.3 | 7.8 | 0.00 | 0.00 | 0.00 | 56 | 1012.6 |
| 20260505171011 | 60 | 134 | 3.5 | 7.0 | 0.00 | 0.00 | 0.00 | 56 | 1012.6 |
| 20260505170505 | 60 | 133 | 2.6 | 7.0 | 0.00 | 0.00 | 0.00 | 56 | 1012.7 |
| 20260505170004 | 60 | 137 | 2.6 | 7.8 | 0.00 | 0.00 | 0.00 | 55 | 1012.7 |
| 20260505165504 | 60 | 129 | 3.5 | 6.1 | 0.00 | 0.00 | 0.00 | 55 | 1012.7 |
| 20260505165011 | 60 | 135 | 4.3 | 7.8 | 0.00 | 0.00 | 0.00 | 55 | 1012.7 |
| 20260505164011 | 60 | 142 | 2.6 | 8.7 | 0.00 | 0.00 | 0.00 | 54 | 1012.7 |
| 20260505163505 | 60 | 187 | 4.3 | 10.4 | 0.00 | 0.00 | 0.00 | 54 | 1012.6 |
| 20260505163012 | 60 | 154 | 2.6 | 7.0 | 0.00 | 0.00 | 0.00 | 54 | 1012.7 |
| 20260505162504 | 61 | 158 | 2.6 | 6.1 | 0.00 | 0.00 | 0.00 | 54 | 1012.7 |
| 20260505162011 | 61 | 134 | 3.5 | 7.0 | 0.00 | 0.00 | 0.00 | 53 | 1012.6 |
| 20260505161505 | 61 | 103 | 5.2 | 8.7 | 0.00 | 0.00 | 0.00 | 52 | 1012.6 |
| 20260505161012 | 61 | 106 | 4.3 | 7.8 | 0.00 | 0.00 | 0.00 | 52 | 1012.6 |
| 20260505160505 | 61 | 103 | 2.6 | 6.1 | 0.00 | 0.00 | 0.00 | 53 | 1012.6 |
| 20260505152504 | 62 | 87 | 1.7 | 2.6 | 0.00 | 0.00 | 0.00 | 53 | 1012.7 |
| 20260505152011 | 62 | 107 | 1.7 | 5.2 | 0.00 | 0.00 | 0.00 | 52 | 1012.7 |
| 20260505151504 | 62 | 105 | 1.7 | 2.6 | 0.00 | 0.00 | 0.00 | 52 | 1012.7 |
| 20260505151011 | 62 | 136 | 3.5 | 6.1 | 0.00 | 0.00 | 0.00 | 51 | 1012.8 |
| 20260505150504 | 62 | 130 | 0.9 | 2.6 | 0.00 | 0.00 | 0.00 | 51 | 1012.8 |
| 20260505140504 | 63 | 24 | 0.9 | 2.6 | 0.00 | 0.00 | 0.00 | 50 | 1013.0 |
| 20260505124506 | 62 | 116 | 1.7 | 2.6 | 0.00 | 0.00 | 0.00 | 53 | 1013.4 |
| 20260505124013 | 62 | 86 | 4.3 | 7.8 | 0.00 | 0.00 | 0.00 | 52 | 1013.4 |
| 20260505123509 | 62 | 81 | 1.7 | 4.3 | 0.00 | 0.00 | 0.00 | 54 | 1013.4 |
| 20260505123012 | 62 | 138 | 1.7 | 4.3 | 0.00 | 0.00 | 0.00 | 54 | 1013.4 |
| 20260505122506 | 62 | 54 | 2.6 | 7.8 | 0.00 | 0.00 | 0.00 | 54 | 1013.4 |
| 20260505122013 | 63 | 89 | 4.3 | 10.4 | 0.00 | 0.00 | 0.00 | 52 | 1013.3 |
| 20260505121505 | 63 | 99 | 3.5 | 7.8 | 0.00 | 0.00 | 0.00 | 52 | 1013.3 |
| 20260505120506 | 63 | 63 | 4.3 | 10.4 | 0.00 | 0.00 | 0.00 | 53 | 1013.3 |
| 20260505120006 | 63 | 106 | 2.6 | 7.0 | 0.00 | 0.00 | 0.00 | 51 | 1013.4 |
| 20260505115506 | 62 | 132 | 1.7 | 7.8 | 0.00 | 0.00 | 0.00 | 53 | 1013.5 |
| 20260505115013 | 61 | 88 | 7.0 | 10.4 | 0.00 | 0.00 | 0.00 | 52 | 1013.5 |
| 20260505114505 | 62 | 124 | 2.6 | 6.1 | 0.00 | 0.00 | 0.00 | 54 | 1013.5 |
| 20260505114012 | 61 | 74 | 3.5 | 8.7 | 0.00 | 0.00 | 0.00 | 57 | 1013.5 |
| 20260505113506 | 61 | 60 | 2.6 | 8.7 | 0.00 | 0.00 | 0.00 | 57 | 1013.5 |
| 20260505113013 | 61 | 112 | 6.1 | 10.4 | 0.00 | 0.00 | 0.00 | 56 | 1013.5 |
| 20260505112506 | 61 | 82 | 1.7 | 6.1 | 0.00 | 0.00 | 0.00 | 57 | 1013.5 |
| 20260505111506 | 61 | 131 | 5.2 | 10.4 | 0.00 | 0.00 | 0.00 | 56 | 1013.7 |
| 20260505111012 | 61 | 54 | 1.7 | 5.2 | 0.00 | 0.00 | 0.00 | 58 | 1013.6 |
| 20260505110506 | 61 | 33 | 2.6 | 10.4 | 0.00 | 0.00 | 0.00 | 58 | 1013.6 |